When you browse on this site, cookies collect data to enhance your experience and personalize the content and advertising you see.
Visit our Privacy Policy to learn more. By continuing to use the site, you agree to this use of cookies and data.
  • In Deutschland
  • Länderverzeichnis
  • Für 7 Tage
  • Wassertemperatur
  • Satellitenkarten
  • Wetterkarte
  • Widgets
  • user-avatar
    Anmelden

    Stündliche Wetter Darwin

    Heute, 22 Januar, Dienstag

    Zeit Temperatur Niederschläge Wind Luftdruck Luftfeuchtigkeit
    00:00 +32°C° 0 mm 5 m/S 754 mmHg 79%
    01:00 +30°C° 0 mm 5 m/S 754 mmHg 79%
    02:00 +30°C° 0 mm 5 m/S 754 mmHg 79%
    03:00 +30°C° 0 mm 5 m/S 754 mmHg 80%
    04:00 +30°C° 0 mm 5 m/S 754 mmHg 81%
    05:00 +30°C° 0 mm 5 m/S 754 mmHg 81%
    06:00 +29°C° 0 mm 5 m/S 754 mmHg 81%
    07:00 +30°C° 0.2 mm 5 m/S 754 mmHg 78%
    08:00 +32°C° 0.2 mm 6 m/S 754 mmHg 74%
    09:00 +33°C° 0 mm 5 m/S 755 mmHg 73%
    10:00 +34°C° 0.5 mm 5 m/S 754 mmHg 70%
    11:00 +34°C° 0.5 mm 5 m/S 754 mmHg 66%
    12:00 +35°C° 0.5 mm 5 m/S 754 mmHg 63%
    13:00 +34°C° 0.1 mm 5 m/S 754 mmHg 66%
    14:00 +34°C° 0.1 mm 5 m/S 754 mmHg 69%
    15:00 +32°C° 0 mm 5 m/S 754 mmHg 75%
    16:00 +32°C° 0.4 mm 5 m/S 754 mmHg 77%
    17:00 +32°C° 0.4 mm 5 m/S 754 mmHg 78%
    18:00 +30°C° 0.4 mm 5 m/S 754 mmHg 80%
    19:00 +30°C° 2.6 mm 4 m/S 754 mmHg 83%
    20:00 +29°C° 2.6 mm 4 m/S 755 mmHg 86%
    21:00 +29°C° 2.6 mm 4 m/S 755 mmHg 89%
    22:00 +29°C° 1.9 mm 4 m/S 755 mmHg 89%
    23:00 +29°C° 1.9 mm 4 m/S 755 mmHg 89%

    Morgen, 23 Januar, Mittwoch

    Zeit Temperatur Niederschläge Wind Luftdruck Luftfeuchtigkeit
    00:00 +29°C° 1.9 mm 4 m/S 755 mmHg 89%
    01:00 +29°C° 2.9 mm 4 m/S 755 mmHg 89%
    02:00 +28°C° 2.9 mm 4 m/S 755 mmHg 89%
    03:00 +28°C° 2.9 mm 3 m/S 754 mmHg 90%
    04:00 +28°C° 2 mm 4 m/S 754 mmHg 90%
    05:00 +28°C° 2 mm 4 m/S 754 mmHg 90%
    06:00 +28°C° 2 mm 4 m/S 754 mmHg 90%
    07:00 +28°C° 1.4 mm 4 m/S 755 mmHg 89%
    08:00 +29°C° 1.4 mm 4 m/S 755 mmHg 89%
    09:00 +29°C° 1.4 mm 4 m/S 755 mmHg 88%
    10:00 +30°C° 2 mm 4 m/S 755 mmHg 85%
    11:00 +30°C° 2 mm 4 m/S 755 mmHg 83%
    12:00 +31°C° 2 mm 3 m/S 755 mmHg 80%
    13:00 +30°C° 2 mm 3 m/S 754 mmHg 82%
    14:00 +30°C° 2 mm 2 m/S 754 mmHg 83%
    15:00 +30°C° 2 mm 1 m/S 754 mmHg 85%
    16:00 +30°C° 0.5 mm 1 m/S 754 mmHg 86%
    17:00 +29°C° 0.5 mm 1 m/S 754 mmHg 87%
    18:00 +27°C° 0.5 mm 0 m/S 754 mmHg 87%
    19:00 +29°C° 0 mm 1 m/S 754 mmHg 88%
    20:00 +29°C° 0 mm 1 m/S 754 mmHg 88%
    21:00 +28°C° 0 mm 2 m/S 755 mmHg 88%
    22:00 +28°C° 0 mm 2 m/S 755 mmHg 88%
    23:00 +28°C° 0 mm 2 m/S 755 mmHg 88%

    übermorgen, 24 Januar, Donnerstag

    Zeit Temperatur Niederschläge Wind Luftdruck Luftfeuchtigkeit
    00:00 +28°C° 0 mm 2 m/S 755 mmHg 88%
    01:00 +28°C° 1.4 mm 2 m/S 754 mmHg 89%
    02:00 +28°C° 1.4 mm 2 m/S 754 mmHg 90%
    03:00 +28°C° 1.4 mm 1 m/S 753 mmHg 91%
    04:00 +28°C° 0.6 mm 1 m/S 753 mmHg 91%
    05:00 +28°C° 0.6 mm 1 m/S 754 mmHg 90%
    06:00 +28°C° 0.6 mm 1 m/S 754 mmHg 90%
    07:00 +28°C° 0.5 mm 1 m/S 754 mmHg 90%
    08:00 +29°C° 0.5 mm 1 m/S 755 mmHg 89%
    09:00 +29°C° 0.5 mm 1 m/S 755 mmHg 89%
    10:00 +29°C° 1.4 mm 1 m/S 755 mmHg 90%
    11:00 +29°C° 1.4 mm 1 m/S 755 mmHg 91%
    12:00 +28°C° 1.4 mm 2 m/S 755 mmHg 93%
    13:00 +28°C° 1.2 mm 2 m/S 754 mmHg 91%
    14:00 +29°C° 1.2 mm 2 m/S 754 mmHg 90%
    15:00 +29°C° 1.2 mm 2 m/S 754 mmHg 88%
    16:00 +29°C° 1 mm 1 m/S 754 mmHg 89%
    17:00 +28°C° 1 mm 1 m/S 754 mmHg 90%
    18:00 +28°C° 1 mm 1 m/S 754 mmHg 91%
    19:00 +28°C° 0.7 mm 1 m/S 755 mmHg 91%
    20:00 +28°C° 0.7 mm 1 m/S 755 mmHg 92%
    21:00 +28°C° 0.7 mm 1 m/S 756 mmHg 92%
    22:00 +28°C° 0.4 mm 1 m/S 756 mmHg 91%
    23:00 +28°C° 0.4 mm 1 m/S 756 mmHg 91%

    25 Januar, Freitag

    Zeit Temperatur Niederschläge Wind Luftdruck Luftfeuchtigkeit
    00:00 +28°C° 0.4 mm 1 m/S 755 mmHg 90%
    01:00 +28°C° 0 mm 2 m/S 755 mmHg 89%
    02:00 +28°C° 0 mm 2 m/S 754 mmHg 88%
    03:00 +28°C° 0 mm 3 m/S 754 mmHg 87%
    04:00 +28°C° 0.3 mm 2 m/S 754 mmHg 88%
    05:00 +28°C° 0.3 mm 2 m/S 754 mmHg 88%
    06:00 +28°C° 0.3 mm 1 m/S 754 mmHg 89%
    07:00 +29°C° 0.2 mm 2 m/S 755 mmHg 84%
    08:00 +30°C° 0.2 mm 2 m/S 756 mmHg 79%
    09:00 +32°C° 0.2 mm 2 m/S 756 mmHg 74%
    10:00 +34°C° 0.1 mm 3 m/S 756 mmHg 68%
    11:00 +35°C° 0.1 mm 3 m/S 756 mmHg 62%
    12:00 +36°C° 0.1 mm 3 m/S 756 mmHg 56%
    13:00 +36°C° 0 mm 3 m/S 755 mmHg 57%
    14:00 +36°C° 0 mm 3 m/S 754 mmHg 58%
    15:00 +36°C° 0 mm 3 m/S 754 mmHg 58%
    16:00 +35°C° 0.8 mm 3 m/S 754 mmHg 63%
    17:00 +34°C° 0.8 mm 3 m/S 754 mmHg 68%
    18:00 +33°C° 0.8 mm 3 m/S 754 mmHg 73%
    19:00 +31°C° 0 mm 3 m/S 755 mmHg 75%
    20:00 +32°C° 0 mm 4 m/S 755 mmHg 76%
    21:00 +30°C° 0 mm 4 m/S 756 mmHg 77%
    22:00 +30°C° 0.6 mm 4 m/S 756 mmHg 79%
    23:00 +30°C° 0.6 mm 4 m/S 756 mmHg 80%

    26 Januar, Samstag

    Zeit Temperatur Niederschläge Wind Luftdruck Luftfeuchtigkeit
    00:00 +30°C° 0.6 mm 4 m/S 756 mmHg 82%
    01:00 +30°C° 0.5 mm 4 m/S 755 mmHg 82%
    02:00 +29°C° 0.5 mm 5 m/S 755 mmHg 81%
    03:00 +29°C° 0.5 mm 5 m/S 754 mmHg 81%
    04:00 +30°C° 0.6 mm 4 m/S 755 mmHg 80%
    05:00 +30°C° 0.6 mm 4 m/S 755 mmHg 79%
    06:00 +30°C° 0.6 mm 3 m/S 755 mmHg 78%
    07:00 +32°C° 0 mm 4 m/S 756 mmHg 74%
    08:00 +33°C° 0 mm 4 m/S 756 mmHg 70%
    09:00 +34°C° 0 mm 4 m/S 757 mmHg 66%
    10:00 +35°C° 0 mm 5 m/S 756 mmHg 64%
    11:00 +35°C° 0 mm 5 m/S 756 mmHg 61%
    12:00 +36°C° 0 mm 6 m/S 756 mmHg 59%
    13:00 +36°C° 0.4 mm 5 m/S 755 mmHg 59%
    14:00 +36°C° 0.4 mm 5 m/S 754 mmHg 59%
    15:00 +36°C° 0.4 mm 5 m/S 754 mmHg 59%
    16:00 +35°C° 2.9 mm 5 m/S 754 mmHg 64%
    17:00 +34°C° 2.9 mm 5 m/S 754 mmHg 69%
    18:00 +33°C° 2.9 mm 5 m/S 754 mmHg 74%
    19:00 +32°C° 1 mm 5 m/S 755 mmHg 76%
    20:00 +32°C° 1 mm 5 m/S 755 mmHg 78%
    21:00 +30°C° 1 mm 5 m/S 755 mmHg 80%
    22:00 +30°C° 0 mm 5 m/S 755 mmHg 80%
    23:00 +30°C° 0 mm 4 m/S 755 mmHg 81%

    27 Januar, Sonntag

    Zeit Temperatur Niederschläge Wind Luftdruck Luftfeuchtigkeit
    00:00 +30°C° 0 mm 4 m/S 755 mmHg 81%
    01:00 +30°C° 0 mm 4 m/S 755 mmHg 81%
    02:00 +30°C° 0 mm 4 m/S 755 mmHg 81%
    03:00 +30°C° 0 mm 4 m/S 755 mmHg 80%
    04:00 +30°C° 0 mm 4 m/S 755 mmHg 80%
    05:00 +30°C° 0 mm 5 m/S 755 mmHg 79%
    06:00 +30°C° 0 mm 5 m/S 755 mmHg 78%
    07:00 +32°C° 0 mm 6 m/S 755 mmHg 74%
    08:00 +33°C° 0 mm 6 m/S 756 mmHg 70%
    09:00 +34°C° 0 mm 6 m/S 756 mmHg 67%
    10:00 +35°C° 0 mm 6 m/S 756 mmHg 64%
    11:00 +36°C° 0 mm 7 m/S 756 mmHg 62%
    12:00 +36°C° 0 mm 7 m/S 755 mmHg 59%
    13:00 +36°C° 0 mm 7 m/S 755 mmHg 60%
    14:00 +36°C° 0 mm 7 m/S 754 mmHg 60%
    15:00 +36°C° 0 mm 7 m/S 754 mmHg 61%
    16:00 +35°C° 0 mm 7 m/S 754 mmHg 64%
    17:00 +34°C° 0 mm 7 m/S 754 mmHg 67%
    18:00 +33°C° 0 mm 6 m/S 754 mmHg 70%
    19:00 +33°C° 0 mm 6 m/S 755 mmHg 72%
    20:00 +32°C° 0 mm 6 m/S 755 mmHg 75%
    21:00 +32°C° 0 mm 5 m/S 756 mmHg 77%
    22:00 +32°C° 0 mm 6 m/S 755 mmHg 77%
    23:00 +32°C° 0 mm 6 m/S 755 mmHg 77%
    Mehr zeigen